DL5ARK Weather Reports


Display with metric or nautical units.
time (UTC)temp
F
wind
direction
speed
MPH
gust
MPH
rain 1hr
in
rain 24hr
in
rain mn
in
humidity
%
barometer
mb
20260509101248 63 225 2.0 2.0 0.00 0.00 0.00 57 1006.5
20260509100947 63 112 1.0 1.0 0.00 0.00 0.00 56 1006.5
20260509100647 63 337 2.0 2.0 0.00 0.00 0.00 56 1006.5
20260509095747 63 180 3.0 3.0 0.00 0.00 0.00 64 1006.7
20260509095448 63 135 1.0 1.0 0.00 0.00 0.00 59 1006.5
20260509095147 62 337 2.0 2.0 0.00 0.00 0.00 59 1006.5
20260509094847 62 135 1.0 1.0 0.00 0.00 0.00 62 1006.7
20260509094247 62 157 2.0 2.0 0.00 0.00 0.00 62 1006.5
20260509093947 62 135 1.0 1.0 0.00 0.00 0.00 65 1006.7
20260509093647 62 180 5.0 5.0 0.00 0.00 0.00 68 1006.7
20260509093348 61 337 3.0 3.0 0.00 0.00 0.00 66 1006.7
20260509092750 60 90 5.0 5.0 0.00 0.00 0.00 65 1006.7
20260509092447 60 90 2.0 2.0 0.00 0.00 0.00 67 1006.7
20260509092147 60 225 4.0 4.0 0.00 0.00 0.00 70 1006.5
20260509091847 59 225 3.0 3.0 0.00 0.00 0.00 70 1006.5
20260509091547 59 202 3.0 3.0 0.00 0.00 0.00 69 1006.7
20260509091248 59 180 1.0 2.0 0.00 0.00 0.00 70 1006.7
20260509090946 59 135 1.0 1.0 0.00 0.00 0.00 72 1006.7
20260509090647 59 135 1.0 2.0 0.00 0.00 0.00 71 1006.5
20260509090047 58 202 4.0 4.0 0.00 0.00 0.00 71 1006.5
20260509085746 58 90 2.0 2.0 0.00 0.00 0.00 70 1006.7
20260509085450 58 90 1.0 2.0 0.00 0.00 0.00 72 1006.7
20260509085150 58 337 3.0 3.0 0.00 0.00 0.00 72 1006.7
20260509084847 58 225 3.0 3.0 0.00 0.00 0.00 71 1006.7
20260509084548 57 90 1.0 2.0 0.00 0.00 0.00 71 1006.7
20260509084248 57 157 0.0 0.0 0.00 0.00 0.00 71 1006.7
20260509083948 57 180 2.0 2.0 0.00 0.00 0.00 71 1006.7
20260509083647 58 112 2.0 2.0 0.00 0.00 0.00 72 1006.7
20260509083348 57 337 2.0 2.0 0.00 0.00 0.00 72 1006.7
20260509083048 57 90 1.0 1.0 0.00 0.00 0.00 70 1006.7
20260509082748 57 225 2.0 2.0 0.00 0.00 0.00 73 1006.7
20260509082147 57 157 0.0 0.0 0.00 0.00 0.00 72 1006.7
20260509081848 57 337 2.0 2.0 0.00 0.00 0.00 73 1006.7
20260509081547 57 157 3.0 3.0 0.00 0.00 0.00 74 1006.7
20260509081247 57 112 3.0 3.0 0.00 0.00 0.00 73 1006.7
20260509080648 56 90 0.0 0.0 0.00 0.00 0.00 74 1006.7
20260509080348 56 135 1.0 1.0 0.00 0.00 0.00 75 1006.7
20260509080047 57 67 2.0 2.0 0.00 0.00 0.00 76 1006.5
20260509075750 56 337 3.0 3.0 0.00 0.00 0.00 76 1006.7
20260509074847 56 337 6.0 6.0 0.00 0.00 0.00 77 1006.7
20260509074548 56 90 4.0 4.0 0.00 0.00 0.00 77 1006.7
20260509074247 56 337 3.0 3.0 0.00 0.00 0.00 77 1006.7
20260509073947 56 112 3.0 3.0 0.00 0.00 0.00 77 1006.7
20260509073648 55 337 4.0 4.0 0.00 0.00 0.00 77 1006.7
20260509073347 55 90 5.0 5.0 0.00 0.00 0.00 78 1006.7
20260509073046 55 90 6.0 6.0 0.00 0.00 0.00 78 1006.7
20260509072748 55 90 4.0 4.0 0.00 0.00 0.00 78 1006.7
20260509072447 54 90 5.0 6.0 0.00 0.00 0.00 79 1006.7
20260509071847 54 90 3.0 4.0 0.00 0.00 0.00 79 1006.7
20260509071548 55 90 7.0 7.0 0.00 0.00 0.00 80 1006.7
20260509071248 54 90 5.0 5.0 0.00 0.00 0.00 79 1006.7
20260509070948 54 337 7.0 7.0 0.00 0.00 0.00 80 1006.7
20260509070647 54 337 4.0 4.0 0.00 0.00 0.00 80 1006.7
20260509065747 54 90 5.0 5.0 0.00 0.00 0.00 80 1006.7
20260509065146 53 112 4.0 4.0 0.00 0.00 0.00 81 1007.0
20260509064847 53 90 5.0 5.0 0.00 0.00 0.00 81 1006.7
20260509064550 53 90 5.0 5.0 0.00 0.00 0.00 80 1006.7
20260509063947 53 90 4.0 4.0 0.00 0.00 0.00 80 1006.7
20260509063648 53 90 3.0 3.0 0.00 0.00 0.00 80 1006.7
20260509063048 52 90 4.0 4.0 0.00 0.00 0.00 81 1006.7
20260509062750 51 90 6.0 6.0 0.00 0.00 0.00 81 1006.7
20260509062147 51 90 5.0 5.0 0.00 0.00 0.00 81 1006.7
20260509061848 51 90 4.0 4.0 0.00 0.00 0.00 81 1006.7
20260509061247 51 337 5.0 5.0 0.00 0.00 0.00 81 1006.7
20260509060948 51 337 5.0 5.0 0.00 0.00 0.00 81 1006.7
20260509060647 51 90 5.0 5.0 0.00 0.00 0.00 81 1006.7
20260509060348 51 90 5.0 5.0 0.00 0.00 0.00 80 1006.7
20260509060048 51 90 4.0 4.0 0.00 0.00 0.00 80 1006.7
20260509055748 50 90 2.0 2.0 0.00 0.00 0.00 79 1006.7
20260509055147 50 292 1.0 1.0 0.00 0.00 0.00 81 1006.7
20260509054848 50 270 0.0 0.0 0.00 0.00 0.00 81 1006.7
20260509054547 50 315 0.0 0.0 0.00 0.00 0.00 82 1006.7
20260509054246 49 45 0.0 0.0 0.00 0.00 0.00 81 1006.7
20260509053948 49 247 0.0 0.0 0.00 0.00 0.00 83 1006.7
20260509053650 50 337 0.0 0.0 0.00 0.00 0.00 84 1006.7
20260509053348 49 135 0.0 0.0 0.00 0.00 0.00 84 1006.7
20260509053047 48 135 0.0 0.0 0.00 0.00 0.00 84 1006.7
20260509052747 48 270 0.0 0.0 0.00 0.00 0.00 84 1006.7
20260509052447 48 270 0.0 0.0 0.00 0.00 0.00 84 1006.7
20260509052147 48 225 0.0 0.0 0.00 0.00 0.00 85 1006.7
20260509051850 48 225 0.0 0.0 0.00 0.00 0.00 85 1006.7
20260509051247 48 270 0.0 0.0 0.00 0.00 0.00 85 1006.5
20260509050947 47 337 1.0 1.0 0.00 0.00 0.00 86 1006.7
20260509050648 47 225 1.0 1.0 0.00 0.00 0.00 87 1006.5
20260509050048 47 135 0.0 0.0 0.00 0.00 0.00 87 1006.5
20260509045747 46 337 0.0 0.0 0.00 0.00 0.00 87 1006.5
20260509045447 46 270 0.0 0.0 0.00 0.00 0.00 87 1006.2
20260509045147 46 270 0.0 0.0 0.00 0.00 0.00 87 1006.2
20260509044848 45 270 0.0 0.0 0.00 0.00 0.00 86 1006.5
20260509044248 44 225 0.0 0.0 0.00 0.00 0.00 87 1006.2
20260509043947 45 135 0.0 0.0 0.00 0.00 0.00 87 1006.2
20260509043648 45 157 0.0 0.0 0.00 0.00 0.00 87 1006.2
20260509043047 44 157 0.0 0.0 0.00 0.00 0.00 87 1006.2
20260509042751 43 135 0.0 0.0 0.00 0.00 0.00 86 1006.2
20260509042446 43 157 0.0 0.0 0.00 0.00 0.00 87 1006.2
20260509042147 42 225 0.0 0.0 0.00 0.00 0.00 86 1006.2
20260509041848 42 225 0.0 0.0 0.00 0.00 0.00 85 1006.2
20260509041548 42 180 0.0 0.0 0.00 0.00 0.00 85 1006.2
20260509040948 42 135 0.0 0.0 0.00 0.00 0.00 86 1006.2
20260509040647 42 157 0.0 0.0 0.00 0.00 0.00 86 1006.2
20260509040348 42 67 1.0 1.0 0.00 0.00 0.00 85 1006.2
20260509040048 42 180 1.0 1.0 0.00 0.00 0.00 86 1006.2
20260509035748 42 135 0.0 0.0 0.00 0.00 0.00 85 1006.2
20260509035148 41 112 1.0 2.0 0.00 0.00 0.00 85 1006.2
20260509034847 41 135 0.0 0.0 0.00 0.00 0.00 85 1006.2
20260509034547 41 135 0.0 0.0 0.00 0.00 0.00 85 1006.2
20260509034247 41 135 0.0 0.0 0.00 0.00 0.00 85 1006.2
20260509033650 41 112 0.0 0.0 0.00 0.00 0.00 85 1006.2
20260509033347 41 135 0.0 0.0 0.00 0.00 0.00 85 1006.2
20260509033048 41 67 0.0 0.0 0.00 0.00 0.00 86 1006.2
20260509032747 42 337 0.0 0.0 0.00 0.00 0.00 86 1006.2
20260509032447 41 90 2.0 2.0 0.00 0.00 0.00 86 1006.2
20260509032147 42 90 4.0 4.0 0.00 0.00 0.00 86 1006.5
20260509031548 41 90 4.0 4.0 0.00 0.00 0.00 84 1006.5
20260509031247 41 67 1.0 2.0 0.00 0.00 0.00 84 1006.5
20260509030948 41 112 1.0 1.0 0.00 0.00 0.00 84 1006.5
20260509030648 41 135 0.0 0.0 0.00 0.00 0.00 84 1006.5
20260509030348 41 157 0.0 0.0 0.00 0.00 0.00 84 1006.2
20260509030047 41 180 0.0 0.0 0.00 0.00 0.00 84 1006.2
20260509025748 41 135 0.0 0.0 0.00 0.00 0.00 84 1006.2
20260509025448 42 157 0.0 0.0 0.00 0.00 0.00 84 1006.5
20260509025147 42 22 0.0 0.0 0.00 0.00 0.00 84 1006.5
20260509024848 42 0 0.0 0.0 0.00 0.00 0.00 85 1006.2
20260509024246 42 45 0.0 0.0 0.00 0.00 0.00 85 1006.5
20260509023947 42 337 2.0 2.0 0.00 0.00 0.00 85 1006.5
20260509023647 42 90 0.0 0.0 0.00 0.00 0.00 85 1006.5
20260509023348 42 90 2.0 2.0 0.00 0.00 0.00 85 1006.2
20260509023047 42 112 2.0 2.0 0.00 0.00 0.00 85 1006.2
20260509022447 42 337 5.0 5.0 0.00 0.00 0.00 86 1006.5
20260509022148 42 90 2.0 2.0 0.00 0.00 0.00 83 1006.2
20260509021848 41 337 0.0 0.0 0.00 0.00 0.00 82 1006.2
20260509021548 41 135 0.0 0.0 0.00 0.00 0.00 82 1006.5
20260509020348 41 112 0.0 0.0 0.00 0.00 0.00 83 1006.7
20260509020047 42 112 0.0 0.0 0.00 0.00 0.00 83 1006.7
20260509015748 42 180 0.0 0.0 0.00 0.00 0.00 84 1006.5
20260509015450 42 90 2.0 2.0 0.00 0.00 0.00 83 1006.5
20260509015148 42 45 0.0 0.0 0.00 0.00 0.00 82 1006.5
20260509014848 42 337 0.0 0.0 0.00 0.00 0.00 83 1006.5
20260509014548 42 292 0.0 0.0 0.00 0.00 0.00 82 1006.5
20260509013948 42 45 1.0 1.0 0.00 0.00 0.00 83 1006.2
20260509013348 42 135 1.0 1.0 0.00 0.00 0.00 82 1006.2
20260509013048 42 270 1.0 1.0 0.00 0.00 0.00 82 1006.2
20260509012747 43 45 0.0 0.0 0.00 0.00 0.00 82 1006.5
20260509012448 42 337 0.0 0.0 0.00 0.00 0.00 82 1006.5
20260509012148 42 270 1.0 1.0 0.00 0.00 0.00 82 1006.5
20260509011248 42 112 1.0 2.0 0.00 0.00 0.00 81 1006.5
20260509010948 42 112 0.0 0.0 0.00 0.00 0.00 80 1006.5
20260509010648 42 67 0.0 0.0 0.00 0.00 0.00 81 1006.7
20260509010047 42 135 0.0 0.0 0.00 0.00 0.00 81 1006.5
20260509005747 42 337 0.0 0.0 0.00 0.00 0.00 81 1006.5
20260509005448 42 270 0.0 0.0 0.00 0.00 0.00 80 1006.7
20260509005147 42 225 1.0 1.0 0.00 0.00 0.00 81 1006.7
20260509004846 42 225 0.0 0.0 0.00 0.00 0.00 80 1006.5
20260509004550 42 225 0.0 0.0 0.00 0.00 0.00 81 1006.7
20260509003948 43 135 0.0 0.0 0.00 0.00 0.00 81 1006.7
20260509003647 43 180 0.0 0.0 0.00 0.00 0.00 81 1006.7
20260509003347 43 90 0.0 0.0 0.00 0.00 0.00 81 1006.7
20260509003048 43 90 0.0 0.0 0.00 0.00 0.00 82 1006.7
20260509002747 43 337 0.0 0.0 0.00 0.00 0.00 82 1006.7
20260509002447 44 90 1.0 1.0 0.00 0.00 0.00 82 1006.7
20260509002147 44 90 2.0 2.0 0.00 0.00 0.00 82 1006.7
20260509001847 44 45 4.0 4.0 0.00 0.00 0.00 82 1006.7
20260509001548 44 67 1.0 1.0 0.00 0.00 0.00 83 1006.7
20260509001250 44 67 6.0 6.0 0.00 0.00 0.00 82 1006.7
20260509000948 44 67 5.0 5.0 0.00 0.00 0.00 83 1006.7
20260509000647 44 67 8.0 8.0 0.00 0.00 0.00 82 1006.7
20260509000348 44 90 3.0 3.0 0.00 0.00 0.00 82 1006.7
20260509000048 44 90 9.0 9.0 0.00 0.00 0.00 82 1006.7
20260508235748 44 90 3.0 3.0 0.00 0.00 0.00 82 1006.7
20260508235447 44 67 5.0 6.0 0.00 0.00 0.00 81 1007.0
20260508235148 44 337 1.0 1.0 0.00 0.00 0.00 82 1006.7
20260508234848 44 67 5.0 5.0 0.00 0.00 0.00 82 1006.7
20260508234548 44 45 8.0 8.0 0.00 0.00 0.00 82 1006.7
20260508233948 44 90 8.0 8.0 0.00 0.00 0.00 82 1007.0
20260508233647 44 45 6.0 6.0 0.00 0.00 0.00 82 1007.0
20260508233347 44 337 5.0 5.0 0.00 0.00 0.00 81 1006.7
20260508233047 44 90 2.0 2.0 0.00 0.00 0.00 81 1006.7
20260508232750 44 90 3.0 3.0 0.00 0.00 0.00 80 1006.7
20260508232448 44 0 0.0 0.0 0.00 0.00 0.00 80 1006.7
20260508232147 44 45 1.0 1.0 0.00 0.00 0.00 80 1006.7
20260508231848 44 90 4.0 4.0 0.00 0.00 0.00 80 1006.7
20260508231547 44 90 3.0 3.0 0.00 0.00 0.00 81 1006.7
20260508230947 44 67 2.0 2.0 0.00 0.00 0.00 80 1006.7
20260508230647 44 90 3.0 3.0 0.00 0.00 0.00 81 1006.7
20260508230046 45 90 4.0 4.0 0.00 0.00 0.00 80 1006.7
20260508225747 44 90 3.0 3.0 0.00 0.00 0.00 80 1007.0
20260508225447 45 90 7.0 7.0 0.00 0.00 0.00 81 1006.7
20260508225147 44 112 3.0 3.0 0.00 0.00 0.00 80 1007.0
20260508224847 44 22 2.0 2.0 0.00 0.00 0.00 80 1006.7
20260508224550 44 337 1.0 1.0 0.00 0.00 0.00 80 1006.7
20260508224248 45 67 3.0 3.0 0.00 0.00 0.00 80 1006.7
20260508223947 45 337 3.0 3.0 0.00 0.00 0.00 80 1006.7
20260508223648 45 337 4.0 4.0 0.00 0.00 0.00 81 1006.7
20260508223347 45 45 6.0 6.0 0.00 0.00 0.00 79 1006.7
20260508223048 45 67 6.0 6.0 0.00 0.00 0.00 79 1006.7
20260508222750 45 90 1.0 1.0 0.00 0.00 0.00 80 1006.7
20260508222447 45 337 4.0 4.0 0.00 0.00 0.00 79 1007.0
20260508222147 45 67 3.0 3.0 0.00 0.00 0.00 80 1006.7
20260508221847 45 337 4.0 4.0 0.00 0.00 0.00 80 1006.7
20260508221547 45 67 8.0 8.0 0.00 0.00 0.00 80 1006.7
20260508221247 45 112 2.0 2.0 0.00 0.00 0.00 80 1007.0
20260508220648 45 90 3.0 3.0 0.00 0.00 0.00 80 1006.7
20260508220348 45 90 2.0 2.0 0.00 0.00 0.00 79 1006.7
20260508220048 45 22 3.0 3.0 0.00 0.00 0.00 80 1006.7
20260508215447 45 90 3.0 4.0 0.00 0.00 0.00 80 1007.0
20260508215148 45 67 3.0 3.0 0.00 0.00 0.00 80 1006.7
20260508214848 45 67 2.0 2.0 0.00 0.00 0.00 79 1006.7
20260508214547 45 67 5.0 6.0 0.00 0.00 0.00 80 1006.7
20260508214247 45 337 2.0 2.0 0.00 0.00 0.00 80 1007.0
20260508213948 45 0 4.0 4.0 0.00 0.00 0.00 80 1006.7
20260508213048 45 90 7.0 7.0 0.00 0.00 0.00 80 1006.7
20260508212747 45 90 3.0 3.0 0.00 0.00 0.00 80 1006.7
20260508212447 45 0 6.0 6.0 0.00 0.00 0.00 80 1006.7
20260508212147 45 67 3.0 3.0 0.00 0.00 0.00 80 1007.0
20260508211548 45 90 9.0 9.0 0.00 0.00 0.00 80 1007.0
20260508211248 46 67 10.0 10.0 0.00 0.00 0.00 80 1006.7
20260508210947 45 67 8.0 8.0 0.00 0.00 0.00 80 1007.0
20260508210648 45 67 6.0 6.0 0.00 0.00 0.00 79 1006.7
20260508205748 46 67 6.0 6.0 0.00 0.00 0.00 80 1006.7
20260508205447 46 67 10.0 10.0 0.00 0.00 0.00 79 1007.0
20260508205147 46 90 8.0 8.0 0.00 0.00 0.00 79 1007.0
20260508204848 46 67 8.0 8.0 0.00 0.00 0.00 79 1006.7
20260508204248 46 90 8.0 8.0 0.00 0.00 0.00 79 1006.7
20260508203947 46 90 2.0 2.0 0.00 0.00 0.00 79 1006.7
20260508203647 46 67 7.0 7.0 0.00 0.00 0.00 79 1006.7
20260508203347 46 90 8.0 8.0 0.00 0.00 0.00 79 1006.7
20260508203048 46 22 7.0 7.0 0.00 0.00 0.00 79 1006.7
20260508202447 46 45 6.0 6.0 0.00 0.00 0.00 79 1006.7
20260508202147 46 90 4.0 4.0 0.00 0.00 0.00 79 1006.7
20260508201847 46 90 11.0 11.0 0.00 0.00 0.00 79 1006.7
20260508201547 46 337 6.0 6.0 0.00 0.00 0.00 79 1006.7
20260508200947 46 90 8.0 8.0 0.00 0.00 0.00 79 1006.7
20260508200647 47 67 10.0 10.0 0.00 0.00 0.00 79 1006.5
20260508200348 47 45 2.0 2.0 0.00 0.00 0.00 78 1006.7
20260508200048 47 337 9.0 9.0 0.00 0.00 0.00 78 1006.5
20260508195750 47 67 8.0 8.0 0.00 0.00 0.00 78 1006.5
20260508194847 47 90 7.0 7.0 0.00 0.00 0.00 77 1006.5
20260508194248 47 67 3.0 3.0 0.00 0.00 0.00 77 1006.5
20260508193947 47 67 2.0 2.0 0.00 0.00 0.00 77 1006.2
20260508193648 47 0 6.0 6.0 0.00 0.00 0.00 77 1006.2
20260508193350 47 22 7.0 8.0 0.00 0.00 0.00 77 1006.5
20260508193048 47 67 8.0 8.0 0.00 0.00 0.00 77 1006.2
20260508192750 47 337 4.0 4.0 0.00 0.00 0.00 76 1006.2
20260508192148 47 337 5.0 5.0 0.00 0.00 0.00 76 1006.2
20260508191847 48 90 8.0 8.0 0.00 0.00 0.00 76 1006.2
20260508191248 48 67 7.0 7.0 0.00 0.00 0.00 76 1006.0
20260508190948 48 90 3.0 3.0 0.00 0.00 0.00 75 1006.0
20260508190647 48 67 7.0 8.0 0.00 0.00 0.00 75 1006.2
20260508190347 48 337 5.0 5.0 0.00 0.00 0.00 75 1006.2
20260508190047 48 67 5.0 5.0 0.00 0.00 0.00 75 1006.2
20260508185747 48 67 7.0 7.0 0.00 0.00 0.00 75 1006.0
20260508184847 49 0 3.0 3.0 0.00 0.00 0.00 73 1006.0
20260508184548 49 45 3.0 3.0 0.00 0.00 0.00 73 1005.7
20260508183948 49 45 5.0 5.0 0.00 0.00 0.00 73 1006.0
20260508183348 49 45 6.0 6.0 0.00 0.00 0.00 73 1005.7
20260508183048 50 45 11.0 11.0 0.00 0.00 0.00 73 1005.7
20260508182448 50 45 3.0 3.0 0.00 0.00 0.00 72 1005.7
20260508181848 50 22 4.0 4.0 0.00 0.00 0.00 72 1005.7
20260508181550 51 45 2.0 2.0 0.00 0.00 0.00 72 1005.7
20260508181247 51 67 5.0 5.0 0.00 0.00 0.00 72 1005.7
20260508180948 51 45 7.0 8.0 0.00 0.00 0.00 72 1005.7
20260508180648 51 90 4.0 4.0 0.00 0.00 0.00 71 1005.7
20260508180348 51 90 11.0 11.0 0.00 0.00 0.00 71 1005.5
20260508175747 52 45 2.0 2.0 0.00 0.00 0.00 70 1005.5
20260508175448 52 45 5.0 5.0 0.00 0.00 0.00 70 1005.5
20260508175147 53 90 6.0 6.0 0.00 0.00 0.00 70 1005.5
20260508174848 52 90 5.0 5.0 0.00 0.00 0.00 70 1005.5
20260508174546 53 0 8.0 8.0 0.00 0.00 0.00 70 1005.5
20260508174251 53 337 7.0 7.0 0.00 0.00 0.00 70 1005.5
20260508173048 54 67 8.0 8.0 0.00 0.00 0.00 69 1005.2
20260508172747 54 337 6.0 6.0 0.00 0.00 0.00 68 1005.2
20260508172147 55 90 5.0 6.0 0.00 0.00 0.00 68 1005.2
20260508171848 55 67 6.0 6.0 0.00 0.00 0.00 68 1005.2
20260508171547 56 67 8.0 8.0 0.00 0.00 0.00 67 1005.5
20260508171247 56 67 8.0 8.0 0.00 0.00 0.00 67 1005.2
20260508170948 56 67 7.0 8.0 0.00 0.00 0.00 67 1005.2
20260508170048 57 90 2.0 2.0 0.00 0.00 0.00 66 1005.2
20260508165746 57 90 4.0 4.0 0.00 0.00 0.00 67 1005.2
20260508165147 58 90 8.0 8.0 0.00 0.00 0.00 65 1005.2
20260508164847 58 337 2.0 2.0 0.00 0.00 0.00 65 1005.2
20260508164247 60 90 3.0 3.0 0.00 0.00 0.00 65 1005.2
20260508163647 60 45 3.0 3.0 0.00 0.00 0.00 64 1005.2
20260508163347 61 22 2.0 2.0 0.00 0.00 0.00 65 1005.2
20260508163047 62 337 1.0 1.0 0.00 0.00 0.00 66 1005.2
20260508162747 61 45 3.0 3.0 0.00 0.00 0.00 67 1005.2
20260508162448 60 337 8.0 8.0 0.00 0.00 0.00 66 1005.2
20260508162147 60 90 5.0 5.0 0.00 0.00 0.00 66 1005.2
20260508161847 60 90 4.0 4.0 0.00 0.00 0.00 66 1005.2
20260508161251 60 67 8.0 8.0 0.00 0.00 0.00 64 1005.2
20260508160948 60 90 10.0 10.0 0.00 0.00 0.00 64 1005.2
20260508160648 62 67 4.0 4.0 0.00 0.00 0.00 64 1005.2
20260508160347 62 337 1.0 2.0 0.00 0.00 0.00 66 1005.2
20260508160047 61 90 8.0 8.0 0.00 0.00 0.00 66 1005.2
20260508155750 60 67 10.0 10.0 0.00 0.00 0.00 65 1005.2
20260508155448 61 67 6.0 6.0 0.00 0.00 0.00 65 1005.2
20260508154847 60 67 7.0 7.0 0.00 0.00 0.00 64 1005.2
20260508154548 61 90 8.0 8.0 0.00 0.00 0.00 64 1005.2
20260508154248 63 90 3.0 4.0 0.00 0.00 0.00 65 1005.2
20260508153648 62 90 6.0 6.0 0.00 0.00 0.00 64 1005.2
20260508153347 62 90 3.0 4.0 0.00 0.00 0.00 67 1005.2
20260508152747 58 22 2.0 2.0 0.00 0.00 0.00 65 1005.2
20260508152147 57 90 4.0 4.0 0.00 0.00 0.00 66 1005.2
20260508151847 57 45 0.0 0.0 0.00 0.00 0.00 65 1005.2
20260508151548 57 22 1.0 1.0 0.00 0.00 0.00 65 1005.2
20260508151248 57 45 1.0 1.0 0.00 0.00 0.00 66 1005.2
20260508150647 57 0 1.0 1.0 0.00 0.00 0.00 66 1005.2
20260508150348 57 22 2.0 2.0 0.00 0.00 0.00 66 1005.2
20260508145748 57 67 0.0 0.0 0.00 0.00 0.00 67 1005.2
20260508145448 57 45 1.0 1.0 0.00 0.00 0.00 66 1005.2
20260508144848 57 0 0.0 0.0 0.00 0.00 0.00 66 1005.2
20260508144547 57 45 0.0 0.0 0.00 0.00 0.00 66 1005.2
20260508144247 56 337 4.0 4.0 0.00 0.00 0.00 65 1005.2
20260508143948 57 67 4.0 4.0 0.00 0.00 0.00 65 1005.5
20260508143648 57 337 4.0 4.0 0.00 0.00 0.00 65 1005.5
20260508143347 57 22 0.0 0.0 0.00 0.00 0.00 64 1005.7
20260508142447 57 45 0.0 0.0 0.00 0.00 0.00 64 1005.5
20260508141847 58 45 4.0 4.0 0.00 0.00 0.00 63 1005.7
20260508141548 58 90 0.0 0.0 0.00 0.00 0.00 63 1005.7
20260508141248 58 337 2.0 2.0 0.00 0.00 0.00 63 1005.7
20260508140950 58 0 8.0 8.0 0.00 0.00 0.00 62 1005.7
20260508140348 60 337 3.0 3.0 0.00 0.00 0.00 60 1005.7
20260508140048 60 90 1.0 1.0 0.00 0.00 0.00 57 1005.5
20260508135748 61 22 1.0 1.0 0.00 0.00 0.00 60 1005.7
20260508135447 61 315 2.0 2.0 0.00 0.00 0.00 60 1005.5
20260508135147 62 90 0.0 0.0 0.00 0.00 0.00 60 1005.7
20260508134850 63 67 1.0 1.0 0.00 0.00 0.00 62 1005.7
20260508134547 62 67 0.0 0.0 0.00 0.00 0.00 62 1005.7
20260508134247 60 90 2.0 2.0 0.00 0.00 0.00 63 1005.7
20260508133947 60 0 4.0 4.0 0.00 0.00 0.00 64 1005.5
20260508133648 59 315 0.0 0.0 0.00 0.00 0.00 63 1005.7
20260508133347 59 337 1.0 2.0 0.00 0.00 0.00 63 1005.7
20260508132147 58 337 1.0 2.0 0.00 0.00 0.00 62 1005.7
20260508131848 58 90 3.0 3.0 0.00 0.00 0.00 63 1005.7
20260508131547 58 45 3.0 3.0 0.00 0.00 0.00 63 1005.7
20260508130947 58 90 1.0 1.0 0.00 0.00 0.00 65 1005.7
20260508130650 58 0 1.0 1.0 0.00 0.00 0.00 66 1006.0
20260508130347 58 45 0.0 0.0 0.00 0.00 0.00 64 1005.7
20260508130047 58 337 1.0 1.0 0.00 0.00 0.00 66 1005.7
20260508125748 58 67 2.0 2.0 0.00 0.00 0.00 66 1005.7
20260508125147 58 90 4.0 4.0 0.00 0.00 0.00 66 1005.7
20260508124847 58 112 3.0 3.0 0.00 0.00 0.00 65 1005.7
20260508123947 59 112 1.0 1.0 0.00 0.00 0.00 63 1005.7
20260508123648 59 67 2.0 2.0 0.00 0.00 0.00 63 1005.7
20260508123048 59 90 3.0 3.0 0.00 0.00 0.00 63 1005.7
20260508122748 59 0 0.0 0.0 0.00 0.00 0.00 63 1005.7
20260508122450 59 202 1.0 1.0 0.00 0.00 0.00 64 1005.7
20260508122147 59 112 0.0 0.0 0.00 0.00 0.00 63 1005.7
20260508121847 59 45 1.0 1.0 0.00 0.00 0.00 62 1005.7
20260508121547 59 67 5.0 5.0 0.00 0.00 0.00 63 1005.7
20260508121246 59 45 0.0 0.0 0.00 0.00 0.00 62 1005.7
20260508120947 60 90 2.0 2.0 0.00 0.00 0.00 62 1005.7
20260508120047 60 337 2.0 2.0 0.00 0.00 0.00 63 1005.7
20260508115148 58 270 0.0 0.0 0.00 0.00 0.00 63 1005.7
20260508114847 58 180 0.0 0.0 0.00 0.00 0.00 64 1005.7
20260508114550 57 202 3.0 3.0 0.00 0.00 0.00 62 1005.7
20260508114247 57 337 2.0 2.0 0.00 0.00 0.00 63 1005.7
20260508113648 58 292 0.0 0.0 0.00 0.00 0.00 64 1005.7
20260508113348 58 337 1.0 1.0 0.00 0.00 0.00 64 1005.7
20260508113047 59 270 2.0 2.0 0.00 0.00 0.00 65 1005.7
20260508112747 58 22 1.0 1.0 0.00 0.00 0.00 65 1005.7
20260508112148 58 90 2.0 2.0 0.00 0.00 0.00 64 1005.7
20260508111847 58 90 0.0 0.0 0.00 0.00 0.00 64 1005.7
20260508111548 57 135 0.0 0.0 0.00 0.00 0.00 64 1006.0
20260508110947 58 67 1.0 1.0 0.00 0.00 0.00 64 1005.7
20260508110650 58 90 0.0 0.0 0.00 0.00 0.00 66 1005.7
20260508110348 58 270 0.0 0.0 0.00 0.00 0.00 65 1005.7
20260508110047 57 315 0.0 0.0 0.00 0.00 0.00 65 1005.7
20260508105447 58 67 1.0 2.0 0.00 0.00 0.00 65 1005.7
20260508105150 58 112 2.0 2.0 0.00 0.00 0.00 64 1005.7
20260508104847 58 337 1.0 1.0 0.00 0.00 0.00 65 1005.7
20260508104548 57 337 0.0 0.0 0.00 0.00 0.00 63 1005.7
20260508104247 57 67 1.0 1.0 0.00 0.00 0.00 64 1005.7
20260508103948 57 112 1.0 1.0 0.00 0.00 0.00 64 1005.7
20260508103647 57 67 1.0 2.0 0.00 0.00 0.00 66 1005.7
20260508103347 57 337 3.0 3.0 0.00 0.00 0.00 65 1006.0
20260508103050 57 90 2.0 2.0 0.00 0.00 0.00 66 1006.0
20260508102448 56 90 4.0 4.0 0.00 0.00 0.00 66 1006.0
20260508102148 56 45 3.0 3.0 0.00 0.00 0.00 66 1006.0
20260508101847 56 45 0.0 0.0 0.00 0.00 0.00 67 1006.0
20260508101548 56 315 0.0 0.0 0.00 0.00 0.00 68 1006.0